Temp
15 15 15 16 16 17 18 18 19 20 21 21 22 23 24 24 24 25 25 25 25 25 23 22 20 21 20 21 20 20 26 26 25 28 26 26 27 25 24 24 24 23 24 21 19
15 15 15 15 16 17 17 17 18 19 20 21 21 22 23 24 25 24 25 26 25 25 23 23 21 21 21 21 20 21 27 27 26 27 28 27 27 26 25 25 23 23 22 20 19
15 15 15 15 16 16 17 17 18 19 19 20 21 22 23 24 24 26 25 26 25 25 22 21 21 23 23 24 23 25 26 26 26 26 24 26 26 26 26 25 24 23 21 20 20
15 15 15 16 16 17 17 18 18 19 19 20 20 21 22 23 27 23 25 25 25 24 22 23 21 25 28 27 26 27 24 26 25 26 25 26 22 26 26 24 24 22 21 21 21
15 15 15 16 16 17 17 18 18 19 19 19 20 20 21 22 25 24 25 25 24 23 23 25 25 26 29 29 28 29 28 27 26 25 25 24 25 24 23 23 23 22 22 22 22
15 15 15 16 16 17 17 18 18 19 19 19 19 20 20 24 23 24 24 24 21 22 24 25 26 26 28 28 29 28 28 27 26 25 25 25 24 24 23 23 22 21 22 22 22
15 16 16 16 16 16 17 18 19 19 19 19 19 19 19 24 22 22 21 21 22 22 24 25 25 25 27 29 26 27 28 28 27 26 26 25 24 24 22 22 21 22 23 23 22
16 16 16 16 17 17 17 18 18 19 19 19 19 19 22 21 21 22 20 21 21 21 23 24 24 25 26 27 28 29 29 29 28 27 26 26 27 24 22 23 21 23 23 23 22
16 16 16 16 17 17 17 18 18 18 18 18 18 18 23 20 20 21 20 22 21 22 22 22 24 27 27 29 30 29 30 29 28 27 27 27 27 25 23 24 24 23 23 23 23
16 16 16 17 17 17 17 17 17 17 18 18 18 18 21 22 20 21 21 21 23 23 23 23 26 29 30 30 29 30 30 30 29 29 26 27 27 27 24 24 25 24 23 23 23
16 16 17 17 17 16 17 17 18 18 18 20 21 20 21 20 20 21 21 21 23 24 26 26 28 28 30 30 31 30 30 30 29 28 28 28 28 29 25 25 25 25 24 24 24
16 16 17 17 17 16 16 17 15 15 18 19 18 18 19 18 20 21 21 23 24 26 27 28 27 30 30 30 30 30 30 30 29 28 28 29 29 29 28 26 26 26 25 24 24
16 16 17 17 16 16 16 16 16 16 19 21 19 20 20 18 21 23 21 24 26 26 28 28 29 30 30 30 29 30 30 30 30 28 29 28 29 29 29 27 25 26 26 25 25
16 17 17 17 16 16 15 16 16 16 22 23 22 21 20 20 22 21 22 24 26 27 28 28 30 29 29 29 29 29 31 30 29 29 30 29 30 30 29 28 27 26 26 26 25
17 17 17 17 16 16 16 16 16 15 21 22 23 20 21 21 22 23 22 23 26 27 28 27 29 28 28 29 30 29 32 30 30 30 30 30 29 32 30 28 28 27 26 26 26
17 17 17 16 16 15 16 16 16 21 20 22 22 23 23 22 23 23 22 23 25 27 28 28 28 29 29 30 30 30 29 29 29 30 29 31 30 32 32 31 30 28 27 27 26
16 16 16 16 16 16 16 17 21 20 21 21 21 22 23 23 23 23 24 24 25 24 25 26 28 28 28 29 30 29 29 27 27 28 28 31 29 31 32 32 31 30 28 27 26
16 16 16 16 16 16 16 21 19 19 20 21 21 22 22 22 23 23 24 24 25 26 27 26 26 27 28 29 28 28 29 28 26 28 30 31 28 31 32 32 32 31 29 28 27
16 16 15 16 16 17 19 20 18 18 19 19 21 21 22 22 21 22 24 25 25 26 25 27 26 28 28 29 29 28 28 31 30 31 30 31 31 32 32 33 32 31 30 29 28
16 16 16 16 17 17 21 17 18 18 18 19 19 20 20 21 21 23 23 22 23 23 24 26 25 27 28 28 28 29 30 28 29 27 27 29 30 31 32 32 32 32 31 30 29
16 18 16 17 17 19 20 18 18 17 16 18 18 19 19 19 20 21 22 20 20 22 23 26 25 27 27 26 27 27 27 28 30 29 28 28 30 33 32 32 31 31 31 30 29
17 20 16 17 20 18 19 17 15 17 17 17 18 18 18 18 19 20 20 20 18 20 23 25 25 25 25 27 28 29 28 29 28 27 29 30 31 33 31 31 30 31 28 29 29
17 17 15 16 20 19 17 17 16 17 16 16 17 16 17 17 17 19 19 19 17 19 19 23 24 24 25 26 26 26 28 29 29 29 28 28 30 32 31 29 28 28 27 26 28
16 19 17 16 15 18 17 16 16 14 15 14 15 16 16 17 18 17 18 19 18 17 14 17 23 24 25 25 27 25 26 28 29 28 28 29 29 32 31 31 27 27 25 25 25
14 15 13 18 16 16 16 16 16 15 15 14 16 15 15 15 16 17 17 17 19 16 19 20 21 24 25 26 27 27 26 27 27 28 28 29 29 31 31 30 25 24 23 23 24
15 15 14 15 14 15 13 15 15 15 14 15 14 14 14 14 15 14 15 15 16 17 18 20 20 21 23 25 25 25 27 27 27 27 28 29 29 30 27 25 23 21 22 21 20
11 11 12 13 15 16 15 14 14 13 14 13 13 13 14 14 13 12 13 14 15 15 15 17 19 21 22 24 24 24 26 26 27 27 28 27 28 29 23 19 17 17 16 15 14
Height
1530 1528 1527 1526 1523 1522 1520 1519 1518 1517 1516 1516 1515 1515 1514 1514 1513 1514 1515 1515 1514 1513 1514 1514 1517 1518 1516 1518 1516 1516 1507 1511 1514 1506 1512 1515 1515 1521 1523 1527 1529 1532 1534 1540 1546
1529 1528 1526 1524 1523 1521 1519 1518 1516 1515 1514 1514 1514 1513 1513 1513 1512 1512 1513 1512 1513 1513 1513 1515 1516 1517 1517 1516 1517 1515 1507 1508 1511 1509 1509 1514 1515 1520 1523 1527 1531 1533 1537 1543 1547
1529 1526 1525 1524 1521 1520 1518 1516 1515 1513 1512 1511 1511 1511 1511 1512 1512 1510 1509 1511 1512 1513 1516 1515 1516 1518 1517 1516 1515 1514 1514 1512 1511 1513 1517 1517 1519 1520 1522 1525 1529 1533 1538 1544 1548
1529 1527 1525 1522 1520 1518 1517 1514 1512 1511 1510 1509 1509 1509 1510 1512 1509 1507 1507 1509 1510 1513 1516 1517 1518 1515 1510 1509 1512 1508 1514 1512 1515 1516 1518 1518 1524 1520 1523 1529 1530 1536 1540 1544 1549
1529 1526 1524 1522 1520 1518 1515 1513 1511 1509 1508 1507 1507 1507 1509 1511 1509 1506 1506 1507 1509 1512 1515 1517 1516 1514 1506 1505 1507 1504 1507 1511 1513 1517 1519 1522 1523 1525 1529 1531 1534 1538 1542 1545 1549
1527 1525 1523 1520 1518 1516 1513 1511 1508 1506 1505 1505 1505 1506 1508 1509 1505 1505 1505 1506 1509 1512 1515 1516 1515 1513 1509 1506 1503 1505 1507 1510 1514 1518 1520 1521 1525 1526 1531 1533 1536 1540 1542 1545 1549
1526 1523 1521 1519 1516 1514 1512 1509 1506 1504 1503 1503 1503 1504 1506 1505 1502 1504 1506 1508 1511 1513 1515 1515 1515 1515 1510 1505 1509 1507 1508 1510 1513 1516 1518 1520 1524 1524 1530 1534 1537 1540 1542 1545 1549
1524 1522 1520 1517 1515 1513 1510 1508 1506 1504 1503 1502 1503 1503 1503 1499 1501 1502 1505 1508 1510 1511 1515 1515 1514 1514 1512 1509 1507 1502 1502 1506 1510 1514 1517 1519 1516 1524 1529 1532 1536 1538 1542 1546 1549
1522 1520 1518 1516 1514 1512 1510 1507 1505 1504 1503 1502 1503 1504 1500 1498 1500 1502 1504 1508 1509 1511 1513 1514 1514 1510 1509 1503 1501 1500 1496 1502 1510 1511 1514 1516 1512 1521 1526 1528 1532 1536 1540 1544 1548
1520 1518 1515 1514 1512 1511 1509 1507 1505 1504 1503 1502 1502 1506 1500 1500 1500 1500 1501 1505 1508 1510 1513 1513 1510 1503 1500 1495 1504 1496 1498 1498 1504 1505 1512 1512 1511 1516 1523 1525 1526 1532 1537 1541 1545
1520 1517 1514 1513 1511 1510 1509 1507 1508 1506 1505 1502 1501 1500 1499 1500 1499 1498 1500 1503 1506 1507 1503 1506 1503 1500 1492 1491 1486 1492 1491 1496 1500 1505 1507 1506 1506 1505 1517 1521 1523 1528 1533 1538 1542
1519 1516 1513 1512 1511 1510 1510 1511 1511 1512 1504 1500 1498 1498 1497 1499 1498 1496 1498 1500 1500 1496 1497 1498 1498 1489 1489 1489 1491 1494 1496 1495 1500 1503 1505 1500 1502 1499 1507 1515 1517 1521 1527 1533 1539
1519 1515 1513 1511 1510 1511 1511 1511 1509 1508 1504 1498 1498 1497 1496 1496 1493 1492 1495 1493 1492 1491 1487 1488 1488 1488 1489 1490 1494 1491 1494 1490 1497 1500 1500 1501 1496 1495 1501 1509 1515 1517 1522 1528 1533
1517 1515 1512 1511 1513 1511 1512 1510 1509 1507 1496 1492 1492 1495 1495 1494 1489 1488 1490 1491 1488 1483 1482 1484 1481 1484 1487 1491 1491 1493 1485 1490 1495 1501 1500 1496 1499 1490 1493 1502 1508 1513 1517 1521 1527
1517 1515 1514 1512 1512 1513 1512 1510 1508 1508 1503 1493 1492 1495 1492 1493 1487 1483 1487 1488 1481 1479 1480 1480 1477 1482 1488 1486 1485 1489 1479 1490 1491 1495 1493 1491 1502 1476 1484 1496 1497 1503 1508 1513 1519
1519 1517 1515 1513 1512 1512 1510 1509 1509 1503 1504 1494 1493 1490 1486 1485 1484 1482 1484 1486 1483 1478 1474 1474 1477 1477 1479 1480 1482 1485 1489 1493 1493 1492 1502 1486 1491 1478 1475 1480 1485 1495 1502 1507 1513
1520 1518 1515 1514 1515 1511 1509 1510 1503 1502 1500 1500 1496 1490 1485 1482 1478 1479 1478 1479 1476 1483 1480 1477 1471 1478 1477 1479 1480 1485 1490 1506 1511 1503 1505 1475 1493 1481 1469 1473 1476 1483 1492 1500 1507
1520 1519 1517 1515 1512 1509 1509 1504 1511 1510 1506 1503 1497 1489 1486 1485 1478 1476 1473 1473 1471 1467 1467 1476 1479 1471 1473 1470 1478 1482 1481 1490 1515 1499 1488 1471 1494 1476 1467 1470 1472 1477 1485 1494 1501
1520 1519 1518 1515 1512 1509 1508 1504 1514 1515 1513 1509 1497 1491 1484 1482 1485 1477 1471 1467 1466 1468 1470 1464 1469 1464 1466 1469 1470 1477 1481 1470 1480 1470 1481 1468 1471 1465 1466 1467 1471 1475 1480 1485 1492
1519 1520 1518 1516 1512 1511 1504 1515 1514 1518 1516 1510 1505 1498 1495 1490 1483 1474 1471 1479 1472 1475 1472 1458 1470 1459 1464 1470 1470 1465 1468 1484 1474 1497 1502 1480 1475 1473 1463 1466 1468 1472 1474 1478 1485
1519 1517 1518 1516 1513 1510 1507 1513 1516 1519 1519 1515 1508 1504 1499 1496 1491 1481 1477 1487 1485 1477 1475 1463 1467 1460 1464 1467 1468 1473 1474 1469 1468 1473 1486 1493 1475 1452 1461 1461 1468 1469 1468 1472 1478
1519 1512 1517 1516 1512 1513 1509 1517 1522 1519 1520 1517 1514 1509 1505 1502 1496 1487 1484 1486 1491 1484 1471 1468 1464 1468 1467 1462 1460 1459 1465 1463 1473 1480 1470 1469 1468 1446 1459 1466 1468 1466 1470 1469 1473
1517 1517 1518 1516 1507 1509 1518 1518 1521 1519 1520 1519 1515 1516 1512 1507 1504 1490 1490 1491 1493 1488 1485 1473 1468 1469 1467 1463 1464 1463 1457 1458 1459 1461 1469 1481 1469 1451 1460 1467 1469 1469 1471 1473 1475
1519 1512 1517 1518 1519 1515 1516 1518 1518 1523 1521 1522 1520 1516 1513 1505 1501 1498 1494 1493 1493 1492 1492 1488 1465 1460 1459 1456 1452 1468 1461 1454 1455 1465 1464 1463 1464 1449 1456 1461 1471 1471 1475 1475 1478
1521 1522 1522 1514 1517 1519 1520 1520 1517 1519 1522 1521 1514 1515 1516 1511 1503 1497 1498 1497 1490 1492 1486 1481 1471 1459 1454 1446 1443 1448 1455 1456 1458 1454 1460 1457 1457 1453 1453 1459 1473 1477 1479 1479 1481
1523 1523 1524 1523 1524 1520 1522 1519 1521 1521 1521 1516 1518 1517 1517 1514 1511 1509 1506 1503 1496 1492 1489 1482 1473 1467 1459 1449 1451 1450 1447 1448 1451 1455 1456 1454 1454 1452 1463 1471 1479 1483 1481 1484 1487
1525 1525 1525 1524 1521 1519 1518 1521 1522 1523 1520 1522 1521 1519 1514 1512 1515 1513 1509 1506 1502 1500 1497 1489 1478 1468 1459 1447 1452 1458 1445 1447 1448 1448 1452 1461 1457 1455 1472 1483 1488 1489 1487 1488 1490
Wind_Speed
11 10 10 10 10 9 9 8 9 10 11 11 11 10 10 9 10 6 3 3 5 8 9 7 9 7 0 2 2 1 3 5 5 7 8 12 9 8 9 15 5 5 14 23 24
12 11 11 11 10 10 11 10 9 9 10 11 12 11 10 10 9 9 6 6 5 7 12 8 10 9 0 1 1 1 0 5 2 5 11 10 8 15 10 11 8 13 20 25 24
12 12 12 11 11 11 11 12 11 10 9 10 11 11 10 8 7 5 7 9 9 9 10 4 6 5 3 2 3 1 3 5 6 6 14 10 8 8 9 3 10 20 27 25 23
13 12 12 11 11 11 12 13 13 11 9 9 9 9 9 5 5 3 8 12 13 13 12 8 5 6 2 4 4 6 4 2 4 6 6 5 7 7 1 6 12 22 25 24 21
13 13 12 11 11 11 12 13 12 11 9 8 7 7 5 7 7 6 6 16 18 15 14 11 8 6 4 3 3 7 7 6 10 7 7 8 7 7 7 10 19 22 23 22 19
14 14 13 13 11 12 13 12 12 10 8 7 6 5 3 11 10 10 6 17 17 15 13 10 3 3 6 4 5 4 6 10 9 10 9 7 8 6 8 16 18 22 21 20 17
14 13 13 13 12 12 13 12 11 9 7 7 5 4 6 7 9 11 12 13 13 13 10 10 8 7 7 4 3 10 9 8 7 9 6 6 7 6 14 18 18 21 21 19 17
14 13 12 12 11 12 13 12 9 8 5 5 3 2 5 11 16 11 13 14 14 11 11 7 8 9 8 5 8 6 8 10 11 10 6 7 7 10 16 20 20 21 21 19 18
15 12 11 10 10 10 11 10 9 7 5 3 2 2 3 4 6 14 13 11 13 10 12 8 7 12 7 13 9 9 6 5 6 10 5 9 3 11 16 20 21 23 22 20 18
14 11 9 8 8 8 11 9 8 5 4 5 3 5 5 3 2 7 14 15 11 12 11 11 11 11 12 12 12 11 9 6 3 8 8 8 7 10 16 19 21 23 22 21 20
15 12 9 7 6 6 10 7 5 1 7 8 9 12 7 5 7 8 12 17 15 19 16 20 13 16 19 18 10 6 9 7 5 2 7 8 7 9 15 19 21 21 24 23 22
15 13 11 7 3 3 8 5 5 5 8 8 8 11 15 11 6 11 12 19 20 19 23 15 20 20 17 16 15 10 10 9 5 5 6 3 8 10 15 19 23 24 25 25 24
15 13 11 7 3 3 5 4 8 8 7 1 3 3 3 5 10 13 17 25 23 24 26 23 23 22 18 18 15 17 14 9 7 5 10 7 14 10 12 17 20 22 24 24 26
15 12 11 7 4 3 1 7 8 6 5 4 2 2 2 5 7 18 17 17 17 26 24 24 24 23 20 20 19 19 16 9 8 8 6 2 1 13 13 16 20 25 25 27 27
12 14 11 7 2 3 3 8 7 2 5 5 2 3 8 8 8 9 19 18 20 20 22 24 23 20 22 22 20 19 9 12 12 12 11 12 7 5 14 14 19 27 30 30 30
11 12 9 8 9 4 4 6 2 6 1 3 3 8 9 5 7 3 13 16 16 21 22 24 22 19 24 22 21 19 5 9 11 13 13 15 7 7 11 14 18 24 31 29 30
8 10 12 11 4 7 2 1 5 4 5 7 9 12 10 4 5 9 13 19 13 18 20 24 22 19 18 22 21 23 17 11 12 12 13 6 7 13 1 5 9 22 31 32 30
4 6 8 9 9 6 1 5 2 5 7 12 10 13 4 8 1 8 9 18 21 16 17 19 25 23 18 26 22 23 23 15 18 13 14 13 7 6 3 2 9 16 26 30 32
4 2 6 9 8 4 6 3 5 6 9 10 14 9 2 5 5 5 12 15 16 16 20 21 24 25 17 20 23 23 24 23 22 17 13 12 14 9 10 5 9 13 19 28 33
6 2 4 8 6 2 1 5 2 6 10 6 8 5 11 11 10 7 9 7 5 3 9 9 14 16 22 16 20 21 18 20 16 23 19 17 16 8 12 9 6 8 16 24 31
4 5 4 5 5 3 3 5 2 6 10 8 8 11 10 10 13 7 5 8 10 5 7 12 12 16 14 21 23 15 15 18 18 19 16 16 16 12 14 2 4 4 9 20 26
2 3 6 3 4 1 3 3 2 6 9 5 7 9 9 11 10 7 4 9 15 9 8 15 10 14 21 20 21 25 24 22 16 23 18 15 14 8 8 1 6 6 3 10 25
1 2 5 3 2 3 4 3 2 6 6 7 6 6 8 10 7 5 6 6 14 8 7 0 12 13 18 11 12 19 23 25 23 18 20 17 17 12 9 6 7 7 5 5 15
2 2 3 5 3 4 1 1 1 2 1 7 7 9 10 10 5 9 10 5 15 8 10 5 14 16 15 18 16 20 23 24 24 18 19 20 22 15 9 1 6 7 5 4 9
5 4 2 1 4 3 3 2 4 4 2 4 4 5 8 6 10 9 8 14 8 4 10 5 11 16 21 14 13 20 20 25 25 25 22 18 22 19 14 3 7 6 6 7 7
3 3 1 3 1 3 2 1 3 4 4 3 6 9 8 10 9 13 14 11 8 6 10 8 7 7 15 18 15 16 20 19 25 25 22 22 16 2 9 6 4 5 6 8 7
4 3 3 3 2 4 2 2 2 5 1 6 8 10 10 9 12 19 20 20 19 16 10 9 6 7 14 14 17 20 19 18 15 16 19 22 20 7 7 9 8 5 8 8 7
Wind_Direction
16 14 12 8 0 353 343 328 305 286 276 268 267 267 271 276 286 297 298 222 169 179 169 146 168 168 199 104 50 273 236 136 126 132 132 145 125 118 116 134 115 134 141 150 152
10 5 4 0 357 351 346 339 323 300 282 271 267 265 263 272 280 280 240 215 179 187 175 155 165 173 130 274 168 334 286 65 13 128 142 136 126 134 135 139 133 123 130 145 150
3 360 356 351 347 344 340 335 328 315 298 278 268 264 260 267 286 219 203 200 182 182 180 156 160 185 190 223 180 168 56 139 113 113 141 150 130 148 130 131 158 151 146 151 154
360 355 350 346 341 337 334 329 325 318 307 291 274 264 254 228 238 237 210 195 179 182 185 187 175 241 240 188 204 187 204 154 114 130 118 123 118 137 131 92 142 149 149 152 158
359 356 351 342 338 335 330 327 322 313 305 299 283 268 241 229 236 214 201 188 182 188 195 203 223 259 312 342 199 238 114 120 155 142 140 148 133 126 112 129 140 148 151 154 159
356 356 352 346 341 338 334 333 324 311 299 290 284 266 224 234 239 208 157 185 182 189 208 215 262 298 291 345 282 130 120 124 148 158 164 160 149 172 126 146 147 158 159 159 159
351 353 350 349 343 341 341 341 336 320 296 283 274 256 240 223 227 211 183 179 189 197 212 224 252 289 339 153 127 138 142 139 146 160 156 186 192 201 156 160 163 171 169 166 166
341 341 345 348 346 343 350 347 351 343 316 284 263 277 254 238 229 209 191 199 209 211 210 235 249 259 261 134 165 191 194 189 152 182 146 221 97 153 163 170 174 175 174 175 174
347 343 337 344 346 345 354 349 350 346 338 317 309 236 234 293 228 215 200 201 206 213 213 232 226 229 200 209 199 195 195 212 160 203 151 232 90 151 177 179 179 178 181 180 178
358 350 343 341 344 355 360 347 339 336 345 321 262 248 226 172 201 194 207 203 193 195 202 221 217 215 217 218 218 198 217 174 169 166 211 208 242 154 183 192 182 182 185 185 185
3 4 353 346 346 10 14 25 342 209 295 277 301 281 272 295 265 222 205 193 202 194 199 200 214 215 208 219 238 295 242 181 119 121 215 222 240 196 182 195 190 189 188 190 191
7 11 7 4 13 38 33 51 48 319 304 290 282 269 270 260 265 213 191 191 200 201 205 191 222 213 225 222 226 226 229 197 129 147 236 217 249 206 187 201 202 195 189 191 191
7 8 7 12 86 65 84 37 349 342 265 247 289 319 349 221 230 219 199 206 200 210 203 214 214 223 218 222 228 232 229 219 272 160 228 268 245 201 194 196 202 204 196 194 193
12 15 13 25 76 40 68 353 343 332 269 96 143 110 347 311 246 220 207 205 216 217 211 222 223 213 216 225 216 224 219 261 221 241 261 234 316 177 179 194 195 202 200 197 194
27 23 21 34 90 28 318 341 337 294 276 40 55 294 304 253 334 188 206 210 232 214 212 213 220 203 216 217 213 239 219 227 246 250 262 214 250 146 172 200 201 202 204 201 196
31 22 35 60 55 17 340 341 328 239 74 353 325 331 318 206 242 264 197 213 226 226 220 224 206 217 223 219 224 227 212 230 235 247 247 247 235 253 180 220 200 201 203 203 198
49 40 50 57 35 10 2 205 247 303 0 2 339 327 312 313 248 236 203 199 203 207 205 215 208 216 233 218 222 220 210 214 216 216 235 197 240 249 192 164 214 196 202 201 201
82 50 35 28 8 13 29 227 344 9 353 333 325 306 309 356 234 239 227 213 221 229 214 208 207 203 203 221 202 215 221 227 221 226 227 180 238 228 89 352 187 202 201 202 201
161 60 25 12 23 67 262 30 29 7 343 330 303 307 350 33 308 288 230 223 203 219 236 211 219 188 211 212 221 201 221 234 245 249 254 211 221 247 244 249 199 193 195 200 203
182 186 9 16 44 337 316 74 84 11 335 320 325 342 324 348 341 304 189 11 354 294 287 236 232 187 205 227 221 241 208 224 231 236 229 239 242 238 176 164 135 195 208 206 205
172 237 345 358 26 289 21 60 57 18 355 337 336 315 326 343 329 319 5 81 7 305 276 248 238 203 201 208 214 200 233 223 227 229 233 232 234 206 230 300 311 300 226 206 202
232 245 345 355 261 330 63 29 354 358 1 330 316 317 320 325 314 311 351 21 3 334 230 222 241 231 205 227 225 221 215 223 220 217 230 255 229 93 123 160 3 11 334 222 195
325 5 357 328 296 100 121 114 13 357 13 350 323 350 323 306 304 329 338 21 1 356 341 44 225 229 232 184 215 231 228 222 226 239 220 225 232 151 134 77 28 33 42 179 193
295 225 95 55 57 319 267 105 301 53 329 340 311 307 320 299 261 292 304 338 335 341 323 257 249 239 225 225 208 213 227 226 226 223 228 219 237 230 183 170 16 53 53 108 183
9 58 354 50 80 53 285 311 301 346 314 320 227 334 327 290 304 274 326 327 283 5 329 322 262 232 248 266 256 201 215 223 226 233 227 230 225 242 251 15 44 17 70 89 127
31 321 85 102 166 257 170 76 338 339 293 302 303 330 311 294 305 304 311 306 293 325 327 324 267 274 250 234 235 246 219 216 224 230 242 249 248 233 45 92 54 42 78 88 89
45 31 293 122 212 269 56 30 345 317 232 286 304 307 305 327 312 295 287 279 270 287 298 297 308 267 240 203 220 233 219 222 221 221 228 234 240 255 92 56 37 30 61 72 62